www.pogodaiklimat.ru
ПОГОДА в Лас-Вегасе
Время
(UTC), дата
12:53 17.04
13:53 17.04
14:53 17.04
15:53 17.04
16:53 17.04
17:53 17.04
18:53 17.04
19:53 17.04
20:53 17.04
21:53 17.04
22:53 17.04
23:53 17.04
00:53 17.04
01:53 17.04
02:53 17.04
03:48 17.04
03:53 17.04
04:53 17.04
05:53 17.04
06:53 17.04
07:53 18.04
08:53 18.04
09:53 18.04
10:53 18.04
11:53 18.04
12:53 18.04
13:53 18.04
14:53 18.04
15:53 18.04
16:53 18.04
17:53 18.04
18:53 18.04
19:53 18.04
20:53 18.04
21:53 18.04
22:53 18.04
23:53 18.04
00:53 18.04
01:53 18.04
02:53 18.04
03:53 18.04
04:53 18.04
05:53 18.04
06:53 18.04
07:53 19.04
08:53 19.04
09:53 19.04
10:53 19.04
Ветер
(напр.,м/с)
Видим. Явления Облачность Т
(С)
Тd
(С)
f
(%)
Тe
(С)
Тes
(С)
Комфортность P
(гПа)
Po
(гПа)
Тmin
(С)
Tmax
(С)
R
(мм)
R24
(мм)
S
(см)
ЮЗ 3 16 км ясно +15.6 -2.2 29 +15 +15 1013.6 935.8
З 1 16 км ясно +16.7 -2.2 27 +17 +18 1014.0 936.1
0 16 км ясно +18.3 -2.2 25 +18 +23 1014.2 936.1
0 16 км ясно +20.0 -3.9 20 +20 +29 1014.3 936.4
В 6 16 км ясно +21.7 -3.9 18 +21 +24 комфорт 1014.1 936.1 +15.6 +21.7
В 4 16 км ясно +21.7 -3.3 18 +21 +30 комфорт 1013.7 935.8
ЮВ 4 16 км ясно +22.8 -2.8 18 +21 +32 комфорт 1012.6 934.8
нст 1 16 км ясно +23.9 -2.8 17 +22 +42 комфорт 1011.7 934.2
Ю 4 16 км ясно +23.9 -3.3 16 +22 +32 комфорт 1010.7 933.0
0 16 км ясно +23.9 -3.3 16 +22 +40 комфорт 1009.9 932.3
0 16 км ясно +23.9 -3.3 16 +22 +34 комфорт 1009.4 931.7 +21.7 +25.0
ЮЗ 3 16 км ясно +23.3 -2.8 17 +22 +25 комфорт 1008.9 931.4
ЮЗ 6 16 км 5/0 3300 м
[средняя]
+22.8 -1.1 20 +22 +22 комфорт 1008.8 931.1
З 5 16 км 2/0 3300 м
[средняя]
+21.7 0.0 24 +21 +21 комфорт 1009.2 931.7
З 3 16 км 5/0 3300 м
[средняя]
+21.1 -1.1 23 +21 +21 комфорт 1009.9 932.3
ЮВ 6
{16}
16 км слабый дождь 10/2 1950 м
[средняя]
+21.0 +1.0 26 +21 +21 комфорт 933.6
нст 3 16 км слабый дождь 10/2 1650 м
[средняя]
+20.6 +0.6 26 +21 +21 комфорт 1011.5 933.9
ЮВ 2 16 км ясно +18.9 +1.7 32 +19 +19 1011.3 933.6 +18.9 +23.9
СЗ 4 16 км ясно +17.8 +3.3 38 +17 +17 1011.3 933.6
СЗ 5 16 км ясно +16.7 +3.9 42 +16 +16 1011.2 933.6
СЗ 5 16 км ясно +16.1 +3.9 44 +15 +15 1011.1 933.3
СЗ 4 16 км ясно +15.6 +2.8 42 +15 +15 1011.3 933.6
З 3 16 км ясно +15.0 +2.8 44 +14 +14 1011.3 933.6
0 16 км ясно +15.0 +2.8 44 +15 +15 1011.4 933.6 +14.4 +19.4
0 16 км ясно +13.9 +2.8 47 +14 +14 1012.0 933.9
С 2 16 км ясно +15.0 +2.8 44 +15 +15 1012.6 934.5
СЗ 2 16 км ясно +16.1 +3.3 42 +16 +17 1013.3 935.1
СВ 3 16 км ясно +17.8 +3.3 38 +18 +21 1013.8 935.8
нст 2 16 км 2/0 3600 м
[средняя]
+18.3 +3.9 38 +19 +24 1013.9 935.8
нст 1 16 км ясно +19.4 +3.9 36 +21 +33 комфорт 1014.1 936.1 +13.9 +19.4
Ю 1 16 км ясно +20.0 +3.3 33 +21 +38 комфорт 1013.9 935.8
З 9
{12}
16 км 5/2 1950 м
[средняя]
+20.6 +2.8 31 +20 +20 1013.3 935.1
З 7 16 км 8/2 1200 м
[средняя]
+20.6 +2.8 31 +21 +22 комфорт 1013.1 934.8
нст 3 16 км 5/0 3000 м
[средняя]
+21.7 +3.9 31 +22 +31 комфорт 1012.2 934.2
нст 2 16 км 2/0 3000 м
[средняя]
+22.2 +2.2 27 +22 +32 комфорт 1011.7 933.6
ЮЗ 6 16 км 2/0 2250 м
[средняя]
+22.8 +2.2 26 +22 +25 комфорт 1011.2 933.3 +19.4 +22.8
0 16 км ясно +22.2 +2.8 28 +22 +28 комфорт 1011.3 933.3
Ю 4 16 км ясно +22.2 +2.8 28 +22 +23 комфорт 1011.4 933.6
ЮЗ 4 16 км ясно +21.7 +2.2 28 +22 +22 комфорт 1011.7 933.9
З 4 16 км ясно +20.6 +2.8 31 +21 +21 комфорт 1012.5 934.5
З 1 16 км ясно +19.4 +3.3 34 +21 +21 комфорт 1013.2 935.1
0 16 км ясно +18.3 +3.3 37 +18 +18 1013.2 935.1 +18.3 +22.8
С 1 16 км ясно +17.2 +3.3 39 +18 +18 1013.4 935.5
0 16 км ясно +16.1 +2.8 41 +16 +16 1013.6 935.5
Ю 2 16 км ясно +16.1 +3.3 42 +16 +16 1013.4 935.1
0 16 км ясно +16.7 +2.8 39 +17 +17 1012.8 934.8
0 16 км ясно +13.9 +2.8 47 +14 +14 1013.2 934.8
С 1 16 км ясно +13.3 +3.3 51 +13 +13 1013.4 935.1 +13.3 +18.3
Местоположение метеостанции North Las Vegas Airport: широта 36.2121 долгота -115.1940 высота над уровнем моря 667 м.
В архиве по умолчанию представлена погода в Лас-Вегасе за последние 1-2 суток. Обновление информации о фактической погоде в базе происходит ежечасно! Архивные данные за месяц целиком и за предыдущие месяцы Вы можете получить, выбрав интересующий диапазон дат из раскрывающегося списка и нажав кнопку "Ввод!".
Внимание! Архив погоды МЕТАР в базе сайта по станциям, не включенным в климатический монитор, хранится не более 60 дней. Нет смысла пытаться выбрать более раннюю дату.
*Определитесь, кто Вы:
Внимание! Время в таблицах - всемирное. Для получения местного времени необходимо прибавить поправку, которая равна ч.
Смотрите также архив погоды в соседних городах и на ближайших метеорологических станциях:
Партнеры нашего сайта:      
Пояснения к столбцам:
  • Ветер - указаны скорость ветра в м/с - средняя за 10 мин, порывы в срок и между сроками (в фигурных скобках) и направление, откуда дует ветер: С - северный,
  • СВ - северо-восточный, В - восточный, ЮВ - юго-восточный, Ю - южный, ЮЗ - юго-западный, З - западный, СЗ - северо-западный.
  • Видимость - горизонтальная дальность видимости в метрах или километрах. При видимости от 1 до 10 км при отсутствии осадков обычно наблюдается дымка, при ухудшении видимости до 1 км и менее - туман. В сухую погоду видимость может ухудшаться дымом, пылью или мглою.
  • Явления - указаны атмосферные явления, наблюдавшиеся в срок или в последний час перед сроком; фигурными скобками обозначены явления, наблюдавшиеся между сроками (за 1-3 часа до срока); квадратными скобками обозначены град или гололедные отложения с указанием их диаметра в мм.
  • Облачность - указаны через наклонную черту общая и нижняя облачность в баллах и высота нижней границы облаков в метрах; квадратными скобками обозначены формы облаков: Ci - перистые, Cs - перисто-слоистые, Cc - перисто-кучевые, Ac - высококучевые, As - высокослоистые, Sc - слоисто-кучевые, Ns - слоисто-дождевые, Cu - кучевые, Cb - кучево-дождевые. Подробнее классификацию облаков см. в Атласе облаков (PDF).
  • T - Температура воздуха - температура, измеренная на высоте 2 м над землей.
  • Td - Температура точки росы - температура, при понижении до которой содержащийся в воздухе водяной пар достигнет насыщения.
  • f - Относительная влажность воздуха - влажноcть воздуха, измеренная на высоте 2 м над землей.
  • Te - Эффективная температура - температура, которую ощущает одетый по сезону человек в тени. Характеристика душности погоды. При расчете учитывается влияние влажности воздуха и скорости ветра на теплоощущения человека.
  • Tes - Эффективная температура на солнце - температура, которую ощущает человек, с поправкой на солнечный нагрев. Характеристика знойности погоды. Зависит от высоты солнца над горизонтом, облачности и скорости ветра. Ночью, в пасмурную погоду, а также при ветре 12 м/с и более поправка равна нулю.
  • P - Атмосферное давление - приведенное к уровню моря атмосферное давление.
  • Po - Атмосферное давление - измеренное на уровне метеостанции атмосферное давление.
  • Tmin - Минимальная температура - минимум температуры воздуха на высоте 2 м над землей.
  • Tmax - Максимальная температура - максимум температуры воздуха на высоте 2 м над землей.
  • R - Количество осадков - Количество выпавших осадков за период времени, мм. При наведении курсора мыши на число - период времени, за который выпало указанное количество осадков.
  • R24 - Количество осадков - Количество выпавших осадков за 24 часа, мм.
  • S - Снежный покров - Высота снежного покрова, см. При наведении курсора мыши на число - состояние снежного покрова и степень покрытия местности в баллах.